Time,TemperatureF,DewpointF,PressureIn,WindDirection,WindDirectionDegrees,WindSpeedMPH,WindSpeedGustMPH,Humidity,HourlyPrecipIn,Conditions,Clouds,dailyrainin,SoftwareType,DateUTC
2013-09-24 00:13:00,59.0,52.0,29.80,ESE,115,0.0,0.0,77,-99.99,,,-99.99,,2013-09-24 05:13:00,
2013-09-24 00:23:00,58.0,52.0,29.80,ESE,103,0.0,0.0,79,-99.99,,,-99.99,,2013-09-24 05:23:00,
2013-09-24 00:53:00,57.0,51.0,29.80,ESE,118,0.0,0.0,81,-99.99,,,-99.99,,2013-09-24 05:53:00,
2013-09-24 01:12:00,57.0,51.0,29.80,ESE,108,0.0,0.0,81,-99.99,,,-99.99,,2013-09-24 06:12:00,
2013-09-24 01:22:00,56.0,51.0,29.79,ESE,107,0.0,0.0,82,-99.99,,,-99.99,,2013-09-24 06:22:00,
2013-09-24 01:42:00,56.0,51.0,29.79,East,94,0.0,0.0,83,-99.99,,,-99.99,,2013-09-24 06:42:00,
2013-09-24 01:52:00,56.0,51.0,29.79,East,101,0.0,0.0,83,-99.99,,,-99.99,,2013-09-24 06:52:00,
2013-09-24 02:03:00,56.0,51.0,29.79,East,101,0.0,0.0,83,-99.99,,,-99.99,,2013-09-24 07:03:00,
2013-09-24 02:12:00,56.0,51.0,29.79,East,101,0.0,0.0,83,-99.99,,,-99.99,,2013-09-24 07:12:00,
2013-09-24 02:22:00,56.0,51.0,29.80,East,98,0.0,0.0,84,-99.99,,,-99.99,,2013-09-24 07:22:00,
2013-09-24 02:43:00,56.0,51.0,29.80,East,101,0.0,0.0,84,-99.99,,,-99.99,,2013-09-24 07:43:00,
2013-09-24 02:52:00,55.0,51.0,29.79,ESE,117,0.0,0.0,85,-99.99,,,-99.99,,2013-09-24 07:52:00,
2013-09-24 03:11:00,55.0,51.0,29.79,East,91,0.0,0.0,85,-99.99,,,-99.99,,2013-09-24 08:11:00,
2013-09-24 03:22:00,55.0,51.0,29.79,ESE,115,0.0,0.0,86,-99.99,,,-99.99,,2013-09-24 08:22:00,
2013-09-24 03:42:00,55.0,51.0,29.79,East,98,0.0,0.0,85,-99.99,,,-99.99,,2013-09-24 08:42:00,
2013-09-24 03:52:00,54.0,50.0,29.79,East,89,0.0,0.0,86,-99.99,,,-99.99,,2013-09-24 08:52:00,
2013-09-24 04:12:00,54.0,50.0,29.78,ESE,102,0.0,0.0,87,-99.99,,,-99.99,,2013-09-24 09:12:00,
2013-09-24 04:21:00,54.0,50.0,29.78,East,99,0.0,0.0,87,-99.99,,,-99.99,,2013-09-24 09:21:00,
2013-09-24 04:43:00,53.0,50.0,29.78,East,98,0.0,0.0,88,-99.99,,,-99.99,,2013-09-24 09:43:00,
2013-09-24 04:53:00,53.0,50.0,29.78,East,96,0.0,0.0,88,-99.99,,,-99.99,,2013-09-24 09:53:00,
2013-09-24 05:13:00,52.0,49.0,29.79,ESE,102,0.0,0.0,89,-99.99,,,-99.99,,2013-09-24 10:13:00,
2013-09-24 05:23:00,52.0,49.0,29.79,East,85,0.0,0.0,89,-99.99,,,-99.99,,2013-09-24 10:23:00,
2013-09-24 05:33:00,52.0,49.0,29.79,East,85,0.0,0.0,89,-99.99,,,-99.99,,2013-09-24 10:33:00,
2013-09-24 05:42:00,52.0,49.0,29.79,East,85,0.0,0.0,89,-99.99,,,-99.99,,2013-09-24 10:42:00,
2013-09-24 05:53:00,53.0,50.0,29.79,East,101,0.0,0.0,88,-99.99,,,-99.99,,2013-09-24 10:53:00,
2013-09-24 06:11:00,53.0,49.0,29.78,ESE,106,0.0,0.0,87,-99.99,,,-99.99,,2013-09-24 11:11:00,
2013-09-24 06:22:00,53.0,49.0,29.79,East,98,0.0,0.0,87,-99.99,,,-99.99,,2013-09-24 11:22:00,
2013-09-24 06:52:00,53.0,49.0,29.79,East,93,0.0,0.0,87,-99.99,,,-99.99,,2013-09-24 11:52:00,
2013-09-24 07:01:00,53.0,49.0,29.79,East,93,0.0,0.0,87,-99.99,,,-99.99,,2013-09-24 12:01:00,
2013-09-24 07:12:00,53.0,49.0,29.79,East,93,0.0,0.0,87,-99.99,,,-99.99,,2013-09-24 12:12:00,
2013-09-24 07:22:00,52.0,49.0,29.79,East,85,0.0,0.0,88,-99.99,,,-99.99,,2013-09-24 12:22:00,
2013-09-24 07:42:00,52.0,49.0,29.80,ESE,117,0.0,0.0,88,-99.99,,,-99.99,,2013-09-24 12:42:00,
2013-09-24 07:52:00,52.0,49.0,29.80,ESE,105,0.0,0.0,88,-99.99,,,-99.99,,2013-09-24 12:52:00,
2013-09-24 08:11:00,53.0,49.0,29.80,ESE,108,0.0,0.0,87,-99.99,,,-99.99,,2013-09-24 13:11:00,
2013-09-24 08:22:00,54.0,50.0,29.80,ESE,107,0.0,0.0,85,-99.99,,,-99.99,,2013-09-24 13:22:00,
2013-09-24 08:32:00,54.0,50.0,29.80,ESE,107,0.0,0.0,85,-99.99,,,-99.99,,2013-09-24 13:32:00,
2013-09-24 08:42:00,54.0,50.0,29.80,ESE,107,0.0,0.0,85,-99.99,,,-99.99,,2013-09-24 13:42:00,
2013-09-24 08:52:00,56.0,51.0,29.81,East,82,0.0,0.0,82,-99.99,,,-99.99,,2013-09-24 13:52:00,
2013-09-24 09:12:00,57.0,51.0,29.81,East,95,0.0,0.0,81,-99.99,,,-99.99,,2013-09-24 14:12:00,
2013-09-24 09:21:00,58.0,52.0,29.82,ESE,108,0.0,0.0,79,-99.99,,,-99.99,,2013-09-24 14:21:00,
2013-09-24 09:42:00,58.0,51.0,29.80,East,83,0.0,0.0,78,-99.99,,,-99.99,,2013-09-24 14:42:00,
2013-09-24 09:52:00,59.0,52.0,29.81,ESE,113,0.0,0.0,77,-99.99,,,-99.99,,2013-09-24 14:52:00,
2013-09-24 10:11:00,59.0,51.0,29.82,East,101,0.0,0.0,76,-99.99,,,-99.99,,2013-09-24 15:11:00,
2013-09-24 10:22:00,60.0,52.0,29.82,East,98,0.0,0.0,74,-99.99,,,-99.99,,2013-09-24 15:22:00,
2013-09-24 10:33:00,60.0,52.0,29.82,East,98,0.0,0.0,74,-99.99,,,-99.99,,2013-09-24 15:33:00,
2013-09-24 10:43:00,60.0,52.0,29.82,East,98,0.0,0.0,74,-99.99,,,-99.99,,2013-09-24 15:43:00,
2013-09-24 10:54:00,62.0,53.0,29.82,East,99,0.0,0.0,73,-99.99,,,-99.99,,2013-09-24 15:54:00,
2013-09-24 11:03:00,62.0,53.0,29.82,East,99,0.0,0.0,73,-99.99,,,-99.99,,2013-09-24 16:03:00,
2013-09-24 11:13:00,62.0,53.0,29.82,East,99,0.0,0.0,73,-99.99,,,-99.99,,2013-09-24 16:13:00,
2013-09-24 11:23:00,63.0,53.0,29.83,WSW,237,0.0,0.0,70,-99.99,,,-99.99,,2013-09-24 16:23:00,
2013-09-24 11:43:00,63.0,53.0,29.83,WNW,284,0.0,0.0,71,-99.99,,,-99.99,,2013-09-24 16:43:00,
2013-09-24 11:53:00,65.0,54.0,29.83,SSW,198,0.0,0.0,68,-99.99,,,-99.99,,2013-09-24 16:53:00,
2013-09-24 12:13:00,66.0,54.0,29.83,WSW,237,0.0,0.0,66,-99.99,,,-99.99,,2013-09-24 17:13:00,
2013-09-24 12:23:00,68.0,55.0,29.82,West,265,0.0,0.0,64,-99.99,,,-99.99,,2013-09-24 17:23:00,
2013-09-24 12:33:00,68.0,55.0,29.82,West,265,0.0,0.0,64,-99.99,,,-99.99,,2013-09-24 17:33:00,
2013-09-24 12:54:00,69.0,55.0,29.82,NE,54,0.0,0.0,62,-99.99,,,-99.99,,2013-09-24 17:54:00,
2013-09-24 13:03:00,69.0,55.0,29.82,NE,54,0.0,0.0,62,-99.99,,,-99.99,,2013-09-24 18:03:00,
2013-09-24 13:12:00,69.0,55.0,29.82,NE,54,0.0,0.0,62,-99.99,,,-99.99,,2013-09-24 18:12:00,
2013-09-24 13:22:00,70.0,56.0,29.82,SSE,155,0.0,0.0,62,-99.99,,,-99.99,,2013-09-24 18:22:00,
2013-09-24 13:42:00,71.0,57.0,29.82,South,188,0.0,0.0,61,-99.99,,,-99.99,,2013-09-24 18:42:00,
2013-09-24 13:52:00,72.0,57.0,29.82,ESE,104,0.0,0.0,59,-99.99,,,-99.99,,2013-09-24 18:52:00,
2013-09-24 14:02:00,72.0,57.0,29.82,ESE,104,0.0,0.0,59,-99.99,,,-99.99,,2013-09-24 19:02:00,
2013-09-24 14:11:00,72.0,57.0,29.82,ESE,104,0.0,0.0,59,-99.99,,,-99.99,,2013-09-24 19:11:00,
2013-09-24 14:22:00,73.0,56.0,29.81,NE,42,0.0,0.0,56,-99.99,,,-99.99,,2013-09-24 19:22:00,
2013-09-24 14:42:00,73.0,57.0,29.81,SW,219,0.0,0.0,57,-99.99,,,-99.99,,2013-09-24 19:42:00,
2013-09-24 14:52:00,72.0,56.0,29.81,North,7,0.0,0.0,58,-99.99,,,-99.99,,2013-09-24 19:52:00,
2013-09-24 15:11:00,72.0,57.0,29.80,NNW,339,0.0,0.0,60,-99.99,,,-99.99,,2013-09-24 20:11:00,
2013-09-24 15:22:00,72.0,57.0,29.80,NNW,339,0.0,0.0,60,-99.99,,,-99.99,,2013-09-24 20:22:00,
2013-09-24 15:42:00,72.0,56.0,29.80,NE,55,0.0,0.0,58,-99.99,,,-99.99,,2013-09-24 20:42:00,
2013-09-24 15:52:00,73.0,58.0,29.80,NNW,336,0.0,0.0,59,-99.99,,,-99.99,,2013-09-24 20:52:00,
2013-09-24 16:12:00,73.0,56.0,29.80,NNW,335,0.0,0.0,56,-99.99,,,-99.99,,2013-09-24 21:12:00,
2013-09-24 16:22:00,73.0,56.0,29.80,NNW,335,0.0,0.0,56,-99.99,,,-99.99,,2013-09-24 21:22:00,
2013-09-24 16:33:00,73.0,56.0,29.80,NNW,335,0.0,0.0,56,-99.99,,,-99.99,,2013-09-24 21:33:00,
2013-09-24 16:43:00,73.0,56.0,29.80,NNW,335,0.0,0.0,56,-99.99,,,-99.99,,2013-09-24 21:43:00,
2013-09-24 16:54:00,73.0,58.0,29.80,NNW,335,0.0,0.0,59,-99.99,,,-99.99,,2013-09-24 21:54:00,
2013-09-24 17:13:00,72.0,58.0,29.80,NNW,335,0.0,0.0,61,-99.99,,,-99.99,,2013-09-24 22:13:00,
2013-09-24 17:23:00,73.0,58.0,29.80,NNE,32,0.0,0.0,60,-99.99,,,-99.99,,2013-09-24 22:23:00,
2013-09-24 17:54:00,73.0,58.0,29.80,NNW,343,0.0,0.0,60,-99.99,,,-99.99,,2013-09-24 22:54:00,
2013-09-24 18:13:00,70.0,58.0,29.80,NNE,20,0.0,0.0,66,-99.99,,,-99.99,,2013-09-24 23:13:00,
2013-09-24 18:22:00,69.0,58.0,29.80,ENE,58,0.0,0.0,68,-99.99,,,-99.99,,2013-09-24 23:22:00,
2013-09-24 18:33:00,69.0,58.0,29.80,ENE,58,0.0,0.0,68,-99.99,,,-99.99,,2013-09-24 23:33:00,
2013-09-24 18:53:00,69.0,58.0,29.81,North,1,0.0,0.0,68,-99.99,,,-99.99,,2013-09-24 23:53:00,
2013-09-24 19:12:00,68.0,58.0,29.81,NE,53,0.0,0.0,71,-99.99,,,-99.99,,2013-09-25 00:12:00,
2013-09-24 19:22:00,66.0,57.0,29.81,NE,50,0.0,0.0,73,-99.99,,,-99.99,,2013-09-25 00:22:00,
2013-09-24 19:42:00,64.0,57.0,29.81,NE,48,0.0,0.0,77,-99.99,,,-99.99,,2013-09-25 00:42:00,
2013-09-24 19:52:00,63.0,56.0,29.81,NE,48,0.0,0.0,79,-99.99,,,-99.99,,2013-09-25 00:52:00,
2013-09-24 20:02:00,63.0,56.0,29.81,NE,48,0.0,0.0,79,-99.99,,,-99.99,,2013-09-25 01:02:00,
2013-09-24 20:12:00,63.0,56.0,29.81,NE,48,0.0,0.0,79,-99.99,,,-99.99,,2013-09-25 01:12:00,
2013-09-24 20:21:00,61.0,56.0,29.81,NE,52,0.0,0.0,83,-99.99,,,-99.99,,2013-09-25 01:21:00,
2013-09-24 20:42:00,61.0,56.0,29.81,NE,56,0.0,0.0,84,-99.99,,,-99.99,,2013-09-25 01:42:00,
2013-09-24 20:52:00,59.0,54.0,29.82,ENE,60,0.0,0.0,84,-99.99,,,-99.99,,2013-09-25 01:52:00,
2013-09-24 21:12:00,58.0,54.0,29.82,ENE,66,0.0,0.0,88,-99.99,,,-99.99,,2013-09-25 02:12:00,
2013-09-24 21:22:00,59.0,55.0,29.82,NE,55,0.0,0.0,88,-99.99,,,-99.99,,2013-09-25 02:22:00,
2013-09-24 21:42:00,59.0,55.0,29.82,East,89,0.0,0.0,86,-99.99,,,-99.99,,2013-09-25 02:42:00,
2013-09-24 21:52:00,58.0,55.0,29.82,East,95,0.0,0.0,89,-99.99,,,-99.99,,2013-09-25 02:52:00,
2013-09-24 22:11:00,58.0,54.0,29.82,East,89,0.0,0.0,88,-99.99,,,-99.99,,2013-09-25 03:11:00,
2013-09-24 22:23:00,57.0,52.0,29.83,East,89,0.0,0.0,84,-99.99,,,-99.99,,2013-09-25 03:23:00,
2013-09-24 22:34:00,57.0,52.0,29.83,East,89,0.0,0.0,84,-99.99,,,-99.99,,2013-09-25 03:34:00,
2013-09-24 22:44:00,57.0,52.0,29.83,East,89,0.0,0.0,84,-99.99,,,-99.99,,2013-09-25 03:44:00,
2013-09-24 22:55:00,60.0,54.0,29.83,ESE,103,0.0,0.0,82,-99.99,,,-99.99,,2013-09-25 03:55:00,
2013-09-24 23:04:00,60.0,54.0,29.83,ESE,103,0.0,0.0,82,-99.99,,,-99.99,,2013-09-25 04:04:00,
2013-09-24 23:14:00,60.0,54.0,29.83,ESE,103,0.0,0.0,82,-99.99,,,-99.99,,2013-09-25 04:14:00,
2013-09-24 23:24:00,60.0,54.0,29.83,ESE,103,0.0,0.0,82,-99.99,,,-99.99,,2013-09-25 04:24:00,
2013-09-24 23:54:00,59.0,53.0,29.83,ESE,109,0.0,0.0,81,-99.99,,,-99.99,,2013-09-25 04:54:00,